Time,TemperatureF,DewpointF,PressureIn,WindDirection,WindDirectionDegrees,WindSpeedMPH,WindSpeedGustMPH,Humidity,HourlyPrecipIn,Conditions,Clouds,dailyrainin,SolarRadiationWatts/m^2,SoftwareType,DateUTC
2013-10-12 00:02:00,40.0,39.0,-100.00,SE,128,1.0,1.0,95,0.00,,,0.01,0.000000,,2013-10-12 07:02:00,
2013-10-12 00:42:00,38.0,37.0,-100.00,SE,124,0.0,1.0,95,0.00,,,0.01,0.000000,,2013-10-12 07:42:00,
2013-10-12 00:52:00,38.0,37.0,-100.00,SE,124,0.0,1.0,95,0.00,,,0.01,0.000000,,2013-10-12 07:52:00,
2013-10-12 01:02:00,38.0,37.0,-100.00,SE,124,0.0,1.0,95,0.00,,,0.01,0.000000,,2013-10-12 08:02:00,
2013-10-12 01:42:00,38.0,37.0,-100.00,ESE,118,0.0,1.0,95,0.00,,,0.01,0.000000,,2013-10-12 08:42:00,
2013-10-12 01:52:00,38.0,37.0,-100.00,ESE,118,0.0,1.0,95,0.00,,,0.01,0.000000,,2013-10-12 08:52:00,
2013-10-12 02:02:00,38.0,37.0,-100.00,ESE,118,0.0,1.0,95,0.00,,,0.01,0.000000,,2013-10-12 09:02:00,
2013-10-12 02:43:00,40.0,39.0,-100.00,ESE,108,1.0,2.0,95,0.00,,,0.01,0.000000,,2013-10-12 09:43:00,
2013-10-12 02:54:00,40.0,39.0,-100.00,ESE,108,1.0,2.0,95,0.00,,,0.01,0.000000,,2013-10-12 09:54:00,
2013-10-12 03:03:00,40.0,39.0,-100.00,ESE,108,1.0,2.0,95,0.00,,,0.01,0.000000,,2013-10-12 10:03:00,
2013-10-12 03:42:00,40.0,39.0,-100.00,ESE,116,0.0,2.0,95,0.00,,,0.01,0.000000,,2013-10-12 10:42:00,
2013-10-12 03:52:00,40.0,39.0,-100.00,ESE,116,0.0,2.0,95,0.00,,,0.01,0.000000,,2013-10-12 10:52:00,
2013-10-12 04:02:00,40.0,39.0,-100.00,ESE,116,0.0,2.0,95,0.00,,,0.01,0.000000,,2013-10-12 11:02:00,
2013-10-12 04:42:00,40.0,39.0,-100.00,SE,134,0.0,1.0,95,0.00,,,0.01,0.000000,,2013-10-12 11:42:00,
2013-10-12 04:52:00,40.0,39.0,-100.00,SE,134,0.0,1.0,95,0.00,,,0.01,0.000000,,2013-10-12 11:52:00,
2013-10-12 05:01:00,40.0,39.0,-100.00,SE,134,0.0,1.0,95,0.00,,,0.01,0.000000,,2013-10-12 12:01:00,
2013-10-12 05:42:00,40.0,39.0,-100.00,NNE,28,1.0,3.0,95,0.02,,,0.03,0.000000,,2013-10-12 12:42:00,
2013-10-12 05:52:00,40.0,39.0,-100.00,NNE,28,1.0,3.0,95,0.02,,,0.03,0.000000,,2013-10-12 12:52:00,
2013-10-12 06:01:00,40.0,39.0,-100.00,NNE,28,1.0,3.0,95,0.02,,,0.03,0.000000,,2013-10-12 13:01:00,
2013-10-12 06:42:00,39.0,38.0,-100.00,WNW,294,1.0,5.0,95,0.00,,,0.03,0.000000,,2013-10-12 13:42:00,
2013-10-12 06:52:00,39.0,38.0,-100.00,WNW,294,1.0,5.0,95,0.00,,,0.03,0.000000,,2013-10-12 13:52:00,
2013-10-12 07:02:00,39.0,38.0,-100.00,WNW,294,1.0,5.0,95,0.00,,,0.03,0.000000,,2013-10-12 14:02:00,
2013-10-12 07:42:00,37.0,36.0,-100.00,East,93,1.0,6.0,95,0.02,,,0.05,0.000000,,2013-10-12 14:42:00,
2013-10-12 07:52:00,37.0,36.0,-100.00,East,93,1.0,6.0,95,0.02,,,0.05,0.000000,,2013-10-12 14:52:00,
2013-10-12 08:02:00,37.0,36.0,-100.00,East,93,1.0,6.0,95,0.02,,,0.05,0.000000,,2013-10-12 15:02:00,
2013-10-12 08:44:00,38.0,37.0,-100.00,WNW,303,1.0,4.0,95,0.02,,,0.07,4.000000,,2013-10-12 15:44:00,
2013-10-12 08:53:00,38.0,37.0,-100.00,WNW,303,1.0,4.0,95,0.02,,,0.07,4.000000,,2013-10-12 15:53:00,
2013-10-12 09:03:00,38.0,37.0,-100.00,WNW,303,1.0,4.0,95,0.02,,,0.07,4.000000,,2013-10-12 16:03:00,
2013-10-12 09:43:00,38.0,37.0,-100.00,NNE,27,1.0,3.0,95,0.02,,,0.08,60.000000,,2013-10-12 16:43:00,
2013-10-12 09:53:00,38.0,37.0,-100.00,NNE,27,1.0,3.0,95,0.02,,,0.08,60.000000,,2013-10-12 16:53:00,
2013-10-12 10:03:00,38.0,37.0,-100.00,NNE,27,1.0,3.0,95,0.02,,,0.08,60.000000,,2013-10-12 17:03:00,
2013-10-12 10:42:00,39.0,36.0,-100.00,SSE,162,1.0,3.0,89,0.00,,,0.08,120.000000,,2013-10-12 17:42:00,
2013-10-12 10:53:00,39.0,36.0,-100.00,SSE,162,1.0,3.0,89,0.00,,,0.08,120.000000,,2013-10-12 17:53:00,
2013-10-12 11:02:00,39.0,36.0,-100.00,SSE,162,1.0,3.0,89,0.00,,,0.08,120.000000,,2013-10-12 18:02:00,
2013-10-12 11:42:00,41.0,37.0,-100.00,WNW,284,1.0,2.0,87,0.01,,,0.09,180.000000,,2013-10-12 18:42:00,
2013-10-12 11:52:00,41.0,37.0,-100.00,WNW,284,1.0,2.0,87,0.01,,,0.09,180.000000,,2013-10-12 18:52:00,
2013-10-12 12:01:00,41.0,37.0,-100.00,WNW,284,1.0,2.0,87,0.01,,,0.09,180.000000,,2013-10-12 19:01:00,
2013-10-12 12:42:00,44.0,39.0,-100.00,North,356,1.0,3.0,83,0.00,,,0.09,280.000000,,2013-10-12 19:42:00,
2013-10-12 12:52:00,44.0,39.0,-100.00,North,356,1.0,3.0,83,0.00,,,0.09,280.000000,,2013-10-12 19:52:00,
2013-10-12 13:03:00,44.0,39.0,-100.00,North,356,1.0,3.0,83,0.00,,,0.09,280.000000,,2013-10-12 20:03:00,
2013-10-12 13:42:00,47.0,42.0,-100.00,SSW,207,1.0,6.0,82,0.00,,,0.09,344.000000,,2013-10-12 20:42:00,
2013-10-12 13:52:00,47.0,42.0,-100.00,SSW,207,1.0,6.0,82,0.00,,,0.09,344.000000,,2013-10-12 20:52:00,
2013-10-12 14:01:00,47.0,42.0,-100.00,SSW,207,1.0,6.0,82,0.00,,,0.09,344.000000,,2013-10-12 21:01:00,
2013-10-12 14:43:00,47.0,42.0,-100.00,East,81,2.0,7.0,82,0.00,,,0.09,435.000000,,2013-10-12 21:43:00,
2013-10-12 14:54:00,47.0,42.0,-100.00,East,81,2.0,7.0,82,0.00,,,0.09,435.000000,,2013-10-12 21:54:00,
2013-10-12 15:04:00,47.0,42.0,-100.00,East,81,2.0,7.0,82,0.00,,,0.09,435.000000,,2013-10-12 22:04:00,
2013-10-12 15:43:00,46.0,42.0,-100.00,East,91,2.0,6.0,86,0.00,,,0.09,243.000000,,2013-10-12 22:43:00,
2013-10-12 15:54:00,46.0,42.0,-100.00,East,91,2.0,6.0,86,0.00,,,0.09,243.000000,,2013-10-12 22:54:00,
2013-10-12 16:02:00,46.0,42.0,-100.00,East,91,2.0,6.0,86,0.00,,,0.09,243.000000,,2013-10-12 23:02:00,
2013-10-12 16:42:00,46.0,42.0,-100.00,SW,227,2.0,8.0,86,0.00,,,0.09,172.000000,,2013-10-12 23:42:00,
2013-10-12 16:52:00,46.0,42.0,-100.00,SW,227,2.0,8.0,86,0.00,,,0.09,172.000000,,2013-10-12 23:52:00,
2013-10-12 17:01:00,46.0,42.0,-100.00,SW,227,2.0,8.0,86,0.00,,,0.09,172.000000,,2013-10-13 00:01:00,
2013-10-12 17:42:00,43.0,40.0,-100.00,NE,40,1.0,6.0,88,0.00,,,0.09,95.000000,,2013-10-13 00:42:00,
2013-10-12 17:52:00,43.0,40.0,-100.00,NE,40,1.0,6.0,88,0.00,,,0.09,95.000000,,2013-10-13 00:52:00,
2013-10-12 18:01:00,43.0,40.0,-100.00,NE,40,1.0,6.0,88,0.00,,,0.09,95.000000,,2013-10-13 01:01:00,
2013-10-12 18:42:00,43.0,41.0,-100.00,NW,312,1.0,4.0,93,0.00,,,0.09,17.000000,,2013-10-13 01:42:00,
2013-10-12 18:52:00,43.0,41.0,-100.00,NW,312,1.0,4.0,93,0.00,,,0.09,17.000000,,2013-10-13 01:52:00,
2013-10-12 19:02:00,43.0,41.0,-100.00,NW,312,1.0,4.0,93,0.00,,,0.09,17.000000,,2013-10-13 02:02:00,
2013-10-12 19:43:00,41.0,39.0,-100.00,ENE,61,1.0,2.0,94,0.00,,,0.09,1.000000,,2013-10-13 02:43:00,
2013-10-12 19:52:00,41.0,39.0,-100.00,ENE,61,1.0,2.0,94,0.00,,,0.09,1.000000,,2013-10-13 02:52:00,
2013-10-12 20:02:00,41.0,39.0,-100.00,ENE,61,1.0,2.0,94,0.00,,,0.09,1.000000,,2013-10-13 03:02:00,
2013-10-12 20:45:00,41.0,40.0,-100.00,East,82,1.0,1.0,95,0.00,,,0.09,0.000000,,2013-10-13 03:45:00,
2013-10-12 20:54:00,41.0,40.0,-100.00,East,82,1.0,1.0,95,0.00,,,0.09,0.000000,,2013-10-13 03:54:00,
2013-10-12 21:02:00,-999.0,-99.9,-100.00,East,82,1.0,1.0,-999,-99.99,,,-99.99,0.000000,,2013-10-13 04:02:00,
2013-10-12 21:43:00,41.0,40.0,-100.00,NNW,346,0.0,1.0,95,0.00,,,0.09,0.000000,,2013-10-13 04:43:00,
2013-10-12 21:54:00,41.0,40.0,-100.00,NNW,346,0.0,1.0,95,0.00,,,0.09,0.000000,,2013-10-13 04:54:00,
2013-10-12 22:03:00,41.0,40.0,-100.00,NNW,346,0.0,1.0,95,0.00,,,0.09,0.000000,,2013-10-13 05:03:00,
2013-10-12 22:43:00,39.0,38.0,-100.00,East,93,1.0,1.0,95,0.00,,,0.09,0.000000,,2013-10-13 05:43:00,
2013-10-12 22:52:00,39.0,38.0,-100.00,East,93,1.0,1.0,95,0.00,,,0.09,0.000000,,2013-10-13 05:52:00,
2013-10-12 23:02:00,39.0,38.0,-100.00,East,93,1.0,1.0,95,0.00,,,0.09,0.000000,,2013-10-13 06:02:00,
2013-10-12 23:42:00,40.0,39.0,-100.00,South,178,1.0,4.0,95,0.00,,,0.09,0.000000,,2013-10-13 06:42:00,
2013-10-12 23:52:00,40.0,39.0,-100.00,South,178,1.0,4.0,95,0.00,,,0.09,0.000000,,2013-10-13 06:52:00,